Location: Ellerstadt
(49.4644°N, 8.2615°E)
Time: 22:17:40
(UTC+00:00)

Cosmos 2242 Rocket - Pass Details

Date: 03 March 2021
Orbit: 617 x 652 km, 82.5° (Epoch: 13 April)

Event Time Altitude Azimuth Distance (km) Brightness Sun altitude
Rises 19:04:49 0° 346° (NNW) 2,963 7.4 -18.8°
Reaches altitude 10° 19:07:07 10° 342° (NNW) 2,043 6.6 -19.2°
Maximum altitude 19:11:33 55° 265° (W) 766 4.3 -19.9°
Drops below altitude 10° 19:15:53 10° 188° (S) 2,005 6.1 -20.6°
Sets 19:18:07 0° 184° (S) 2,902 6.9 -20.9°
